Regional Weather Roundup
Issued by NWS Newport/Morehead, NC

Current Version | Previous Version | Graphics & Text | Print | Product List | Glossary Off
Versions: 1 2 3 4 5 6 7 8 9 10 11 12 13 14 15 16 17 18 19 20 21 22 23 24 25 26 27 28 29 30 31 32 33 34 35 36 37 38 39 40 41 42 43 44 45 46 47 48 49 50

000
ASUS42 KMHX 052124
RWRMHX
WEATHER ROUNDUP FOR EASTERN NORTH CAROLINA
NATIONAL WEATHER SERVICE NEWPORT/MOREHEAD CITY NC
400 PM EST MON DEC 05 2016

NOTE: "FAIR" INDICATES FEW OR NO CLOUDS BELOW 12,000 FEET
WITH NO SIGNIFICANT WEATHER AND/OR OBSTRUCTIONS TO VISIBILITY

NCZ015>017-031-032-045>047-102-103-052200-
NORTH COAST

CITY           SKY/WX    TMP DP  RH WIND       PRES   REMARKS
EDENTON        PTCLDY    56  46  70 NE8       30.02S
ELIZABETH CITY CLEAR     54  42  64 N17       30.02R
KITTY HAWK     CLEAR     51  48  90 N9G16     30.00R
MANTEO         CLEAR     51  46  83 N16       30.01R

$$

NCZ045>047-081-094-103-104-052200-
CENTRAL COAST

CITY           SKY/WX    TMP DP  RH WIND       PRES   REMARKS
FRISCO         PTCLDY    53  47  79 NE9G21    29.99S

$$

NCZ095-097-098-100-101-052200-
SOUTHERN COAST

CITY           SKY/WX    TMP DP  RH WIND       PRES   REMARKS
BEAUFORT       CLEAR     58  50  75 N9        29.99R
CEDAR ISLAND   NOT AVBL
JACKSONVILLE   CLEAR     59  49  69 N10       29.98R
PINEY ISLAND   CLOUDY   N/A N/A N/A N9        29.99R
WILMINGTON     CLOUDY    59  49  69 NE13      29.97S


$$

NCZ011>013-027>030-043-044-078>080-089-090>093-098-052200-
COASTAL PLAIN

CITY           SKY/WX    TMP DP  RH WIND       PRES   REMARKS
AHOSKIE        CLEAR     53  44  71 NE6       30.04R
CLINTON        PTCLDY    58  47  66 NE7       29.99S
ELIZABETHTOWN  CLOUDY    60  48  64 N3        29.98F
GOLDSBORO      CLEAR     58  45  62 N8        29.98R
GREENVILLE     CLEAR     57  46  67 N8        30.03R
HAVELOCK       PTCLDY    59  49  69 NE10      30.00R
KENANSVILLE    CLEAR     57  46  67 NE5       29.99S
KINSTON        CLEAR     57  45  62 N8        30.00R
NEW BERN       PTCLDY    58  48  69 NE9       30.00R
RICHLANDS      CLEAR     58  48  69 N7        29.98S
ROCKY MOUNT    CLEAR     58  44  60 NE10      30.01R
WASHINGTON     CLEAR     56  46  69 NE8       30.01R
WHITEVILLE     CLOUDY    60  48  64 N6        29.96F

$$

AMZ130-135-150-152-154-156-158-170-250-252-270-ANZ085-086-088-633-658-670-052200-
MARINE OBSERVATIONS

STATION/POSITION TIME  TEMP    WIND        PRES    WAVE   SWELL
                       AIR SEA DIR/SP/G            HT/PER HT/PER
                 (UTC) (F)     (DEG/KT/KT) (MB)    (FT/S) (FT/S)
CHESAPEAKE LIGHT NOT AVBL
64 E VA BEACH    2050   52 60  360/ 21/ 27 1014.7    6/ 5
DUCK             2100   51 54  360/ 20/ 22 1015.5
2 E DUCK         NOT AVBL
OREGON INLET     2100   52 55  350/ 13/ 19 1015.5
13E OREGON INLT  NOT AVBL
HATTERAS CG      2100   54 60   10/ 16/ 20 1015.0
DIAMOND BUOY     2050   57 72  360/ 19/ 25 1015.0    6/ 8   3/ 8
CAPE LOOKOUT     2100   56      10/ 15/ 19 1015.1
BEAUFORT LAB     2100   57 56   20/ 10/ 12 1014.3
30 SE NEW RVR IN 2108   57 70   40/ 14/ 17 1014.5
30 SE NEW RVR IN NOT AVBL
27 SE WRIGHTSVLE 2108   60 66   50/ 14/ 19 1014.7
5 SE WRIGHTSVLE  2108   58 62   50/ 10/ 17 1014.5
225 S CAPE HAT   2050   74 74  200/ 21/ 27 1013.8    7/ 6   2/ 9
41 SE CHARLESTON 2050   63 73   20/ 12/ 14 1013.6    5/ 6   3/ 6

$$




USA.gov is the U.S. government's official web portal to all federal, state and local government web resources and services.